status,avgMeasuredTime,avgSpeed,extID,medianMeasuredTime,TIMESTAMP,vehicleCount,_id,REPORT_ID
OK,70,57,651,70,2014-08-01T07:50:00,4,20746203,190879
OK,69,57,651,69,2014-08-01T07:55:00,3,20746375,190879
OK,84,47,651,84,2014-08-01T08:00:00,2,20746706,190879
OK,77,51,651,77,2014-08-01T08:05:00,4,20747155,190879
OK,78,51,651,78,2014-08-01T08:10:00,3,20747528,190879
OK,93,42,651,93,2014-08-01T08:15:00,0,20747977,190879
OK,87,45,651,87,2014-08-01T08:20:00,1,20748426,190879
OK,87,45,651,87,2014-08-01T08:25:00,0,20748875,190879
OK,82,48,651,82,2014-08-01T08:30:00,3,20749324,190879
OK,76,52,651,76,2014-08-01T08:35:00,2,20749773,190879
OK,71,56,651,71,2014-08-01T08:40:00,0,20750222,190879
OK,66,60,651,66,2014-08-01T08:45:00,4,20750671,190879
OK,74,53,651,74,2014-08-01T08:50:00,3,20751120,190879
OK,73,54,651,73,2014-08-01T08:55:00,2,20751569,190879
OK,73,54,651,73,2014-08-01T09:00:00,3,20752018,190879
OK,71,56,651,71,2014-08-01T09:05:00,1,20752467,190879
OK,78,51,651,78,2014-08-01T09:10:00,2,20752916,190879
OK,78,51,651,78,2014-08-01T09:15:00,8,20753365,190879
OK,78,51,651,78,2014-08-01T09:20:00,6,20753814,190879
OK,89,44,651,89,2014-08-01T09:25:00,0,20754263,190879
OK,77,51,651,77,2014-08-01T09:30:00,3,20754712,190879
OK,79,50,651,79,2014-08-01T09:35:00,3,20755161,190879
OK,79,50,651,79,2014-08-01T09:40:00,7,20755610,190879
OK,77,51,651,77,2014-08-01T09:45:00,6,20756059,190879
OK,73,54,651,73,2014-08-01T09:50:00,1,20756508,190879
OK,72,55,651,72,2014-08-01T09:55:00,1,20756957,190879
OK,67,59,651,67,2014-08-01T10:00:00,2,20757406,190879
OK,67,59,651,67,2014-08-01T10:05:00,4,20757855,190879
OK,74,53,651,74,2014-08-01T10:10:00,4,20758304,190879
OK,72,55,651,72,2014-08-01T10:15:00,5,20758753,190879
OK,76,52,651,76,2014-08-01T10:20:00,5,20759202,190879
OK,79,50,651,79,2014-08-01T10:25:00,1,20759651,190879
OK,79,50,651,79,2014-08-01T10:30:00,0,20760100,190879
OK,78,51,651,78,2014-08-01T10:35:00,3,20760549,190879
OK,76,52,651,76,2014-08-01T10:40:00,6,20760998,190879
OK,71,56,651,71,2014-08-01T10:45:00,8,20761447,190879
OK,76,52,651,76,2014-08-01T10:50:00,4,20761896,190879
OK,73,54,651,73,2014-08-01T10:55:00,5,20762345,190879
OK,66,60,651,66,2014-08-01T11:00:00,2,20762794,190879
OK,79,50,651,79,2014-08-01T11:05:00,3,20763243,190879
OK,74,53,651,74,2014-08-01T11:10:00,3,20763692,190879
OK,79,50,651,79,2014-08-01T11:15:00,2,20764141,190879
OK,84,47,651,84,2014-08-01T11:20:00,2,20764589,190879
OK,80,49,651,80,2014-08-01T11:25:00,1,20765038,190879
OK,95,42,651,95,2014-08-01T11:30:00,1,20765487,190879
OK,67,59,651,67,2014-08-01T11:35:00,3,20765936,190879
OK,72,55,651,72,2014-08-01T11:40:00,4,20766385,190879
OK,81,49,651,81,2014-08-01T11:45:00,1,20766834,190879
OK,80,49,651,80,2014-08-01T11:50:00,4,20767283,190879
OK,75,53,651,75,2014-08-01T11:55:00,4,20767732,190879
OK,72,55,651,72,2014-08-01T12:00:00,2,20768181,190879
OK,75,53,651,75,2014-08-01T12:05:00,2,20768630,190879
OK,80,49,651,80,2014-08-01T12:10:00,4,20769079,190879
OK,77,51,651,77,2014-08-01T12:15:00,6,20769528,190879
OK,77,51,651,77,2014-08-01T12:20:00,3,20769977,190879
OK,80,49,651,80,2014-08-01T12:25:00,4,20770426,190879
OK,81,49,651,81,2014-08-01T12:30:00,2,20770875,190879
OK,75,53,651,75,2014-08-01T12:35:00,3,20771324,190879
OK,75,53,651,75,2014-08-01T12:40:00,5,20771773,190879
OK,71,56,651,71,2014-08-01T12:45:00,2,20772222,190879
OK,68,58,651,68,2014-08-01T12:50:00,1,20772671,190879
OK,84,47,651,84,2014-08-01T12:55:00,1,20773120,190879
OK,70,57,651,70,2014-08-01T13:00:00,3,20773569,190879
OK,76,52,651,76,2014-08-01T13:05:00,6,20774018,190879
OK,80,49,651,80,2014-08-01T13:10:00,3,20774467,190879
OK,70,57,651,70,2014-08-01T13:15:00,2,20774916,190879
OK,78,51,651,78,2014-08-01T13:20:00,2,20775365,190879
OK,77,51,651,77,2014-08-01T13:25:00,6,20775814,190879
OK,84,47,651,84,2014-08-01T13:30:00,8,20776263,190879
OK,86,46,651,86,2014-08-01T13:35:00,5,20776712,190879
OK,78,51,651,78,2014-08-01T13:40:00,3,20777161,190879
OK,74,53,651,74,2014-08-01T13:45:00,1,20777610,190879
OK,70,57,651,70,2014-08-01T13:50:00,3,20778059,190879
OK,75,53,651,75,2014-08-01T13:55:00,5,20778508,190879
OK,81,49,651,81,2014-08-01T14:00:00,3,20778957,190879
OK,74,53,651,74,2014-08-01T14:05:00,3,20779406,190879
OK,71,56,651,71,2014-08-01T14:10:00,5,20779855,190879
OK,74,53,651,74,2014-08-01T14:15:00,8,20780304,190879
OK,75,53,651,75,2014-08-01T14:20:00,4,20780753,190879
OK,79,50,651,79,2014-08-01T14:25:00,3,20781202,190879
OK,77,51,651,77,2014-08-01T14:30:00,4,20781651,190879
OK,70,57,651,70,2014-08-01T14:35:00,6,20782100,190879
OK,71,56,651,71,2014-08-01T14:40:00,5,20782549,190879
OK,72,55,651,72,2014-08-01T14:45:00,4,20782998,190879
OK,76,52,651,76,2014-08-01T14:50:00,3,20783447,190879
OK,77,51,651,77,2014-08-01T14:55:00,4,20783896,190879
OK,83,48,651,83,2014-08-01T15:00:00,2,20784345,190879
OK,85,46,651,85,2014-08-01T15:05:00,1,20784794,190879
OK,76,52,651,76,2014-08-01T15:10:00,1,20785243,190879
OK,76,52,651,76,2014-08-01T15:15:00,1,20785692,190879
OK,79,50,651,79,2014-08-01T15:20:00,1,20786141,190879
OK,79,50,651,79,2014-08-01T15:25:00,3,20786590,190879
OK,145,27,651,145,2014-08-01T15:30:00,2,20787039,190879
OK,81,49,651,81,2014-08-01T15:35:00,3,20787488,190879
OK,72,55,651,72,2014-08-01T15:40:00,1,20787937,190879
OK,76,52,651,76,2014-08-01T15:45:00,4,20788386,190879
OK,81,49,651,81,2014-08-01T15:50:00,5,20788835,190879
OK,79,50,651,79,2014-08-01T15:55:00,3,20789284,190879
OK,75,53,651,75,2014-08-01T16:00:00,1,20789733,190879
OK,74,53,651,74,2014-08-01T16:05:00,2,20790182,190879
OK,79,50,651,79,2014-08-01T16:10:00,8,20790631,190879
OK,80,49,651,80,2014-08-01T16:15:00,10,20791080,190879
OK,86,46,651,86,2014-08-01T16:20:00,3,20791529,190879
OK,86,46,651,86,2014-08-01T16:25:00,0,20791978,190879
OK,73,54,651,73,2014-08-01T16:30:00,3,20792427,190879
OK,73,54,651,73,2014-08-01T16:35:00,3,20792876,190879
OK,82,48,651,82,2014-08-01T16:40:00,2,20793325,190879
OK,82,48,651,82,2014-08-01T16:45:00,2,20793774,190879
OK,81,49,651,81,2014-08-01T16:50:00,0,20794223,190879
OK,69,57,651,69,2014-08-01T16:55:00,2,20794672,190879
OK,75,53,651,75,2014-08-01T17:00:00,1,20795121,190879
OK,71,56,651,71,2014-08-01T17:05:00,0,20795570,190879
OK,71,56,651,71,2014-08-01T17:10:00,0,20796019,190879
OK,71,56,651,71,2014-08-01T17:15:00,0,20796468,190879
OK,71,56,651,71,2014-08-01T17:20:00,0,20796917,190879
OK,71,56,651,71,2014-08-01T17:25:00,0,20797366,190879
OK,68,58,651,68,2014-08-01T17:30:00,2,20797815,190879
OK,66,60,651,66,2014-08-01T17:35:00,5,20798264,190879
OK,66,60,651,66,2014-08-01T17:40:00,5,20798713,190879
OK,86,46,651,86,2014-08-01T17:45:00,1,20799162,190879
OK,86,46,651,86,2014-08-01T17:50:00,1,20799611,190879
OK,86,46,651,86,2014-08-01T17:55:00,0,20800060,190879
OK,86,46,651,86,2014-08-01T18:00:00,0,20800509,190879
OK,78,51,651,78,2014-08-01T18:05:00,0,20800958,190879
OK,78,51,651,78,2014-08-01T18:10:00,0,20801407,190879
OK,75,53,651,75,2014-08-01T18:15:00,1,20801856,190879
OK,75,53,651,75,2014-08-01T18:20:00,0,20802305,190879
OK,57,70,651,57,2014-08-01T18:25:00,0,20802754,190879
OK,65,61,651,65,2014-08-01T18:30:00,1,20803203,190879
OK,69,57,651,69,2014-08-01T18:35:00,1,20803652,190879
OK,69,57,651,69,2014-08-01T18:40:00,0,20804101,190879
OK,76,52,651,76,2014-08-01T18:45:00,0,20804550,190879
OK,68,58,651,68,2014-08-01T18:50:00,1,20804999,190879
OK,68,58,651,68,2014-08-01T18:55:00,0,20805448,190879
OK,68,58,651,68,2014-08-01T19:00:00,0,20805897,190879
OK,68,58,651,68,2014-08-01T19:05:00,0,20806346,190879
OK,74,53,651,74,2014-08-01T19:10:00,1,20806795,190879
OK,74,53,651,74,2014-08-01T19:15:00,0,20807244,190879
OK,74,53,651,74,2014-08-01T19:20:00,0,20807693,190879
OK,74,53,651,74,2014-08-01T19:25:00,0,20808142,190879
OK,74,53,651,74,2014-08-01T19:30:00,0,20808591,190879
OK,74,53,651,74,2014-08-01T19:35:00,0,20809040,190879
OK,74,53,651,74,2014-08-01T19:40:00,0,20809489,190879
OK,74,53,651,74,2014-08-01T19:45:00,0,20809938,190879
OK,75,53,651,75,2014-08-01T19:50:00,2,20810387,190879
OK,92,43,651,92,2014-08-01T19:55:00,1,20810836,190879
OK,92,43,651,92,2014-08-01T20:00:00,0,20811283,190879
OK,92,43,651,92,2014-08-01T20:05:00,0,20811456,190879
OK,83,48,651,83,2014-08-01T20:10:00,2,20811658,190879
OK,83,48,651,83,2014-08-01T20:15:00,0,20811865,190879
OK,83,48,651,83,2014-08-01T20:20:00,0,20812073,190879
OK,83,48,651,83,2014-08-01T20:25:00,0,20812293,190879
OK,91,43,651,91,2014-08-01T20:30:00,1,20812506,190879
OK,87,45,651,87,2014-08-01T20:35:00,2,20812716,190879
OK,83,48,651,83,2014-08-01T20:40:00,0,20812917,190879
OK,83,48,651,83,2014-08-01T20:45:00,0,20813124,190879
OK,72,55,651,72,2014-08-01T20:50:00,1,20813335,190879
OK,72,55,651,72,2014-08-01T20:55:00,1,20813565,190879
OK,72,55,651,72,2014-08-01T21:00:00,0,20813803,190879
OK,76,52,651,76,2014-08-01T21:05:00,1,20813980,190879
OK,76,52,651,76,2014-08-01T21:10:00,1,20814220,190879
OK,76,52,651,76,2014-08-01T21:15:00,0,20814416,190879
OK,76,52,651,76,2014-08-01T21:20:00,0,20814622,190879
OK,73,54,651,73,2014-08-01T21:25:00,0,20814852,190879
OK,73,54,651,73,2014-08-01T21:30:00,0,20815127,190879
OK,73,54,651,73,2014-08-01T21:35:00,0,20815361,190879
OK,73,54,651,73,2014-08-01T21:40:00,0,20815584,190879
OK,73,54,651,73,2014-08-01T21:45:00,0,20815821,190879
OK,73,54,651,73,2014-08-01T21:50:00,0,20816062,190879
OK,66,60,651,66,2014-08-01T21:55:00,2,20816297,190879
OK,66,60,651,66,2014-08-01T22:00:00,0,20816565,190879
OK,73,54,651,73,2014-08-01T22:05:00,0,20817014,190879
OK,73,54,651,73,2014-08-01T22:10:00,0,20817336,190879
OK,73,54,651,73,2014-08-01T22:15:00,0,20817765,190879
OK,73,54,651,73,2014-08-01T22:20:00,0,20818055,190879
OK,73,54,651,73,2014-08-01T22:25:00,0,20818371,190879
OK,73,54,651,73,2014-08-01T22:30:00,0,20818705,190879
OK,73,54,651,73,2014-08-01T22:35:00,0,20819010,190879
OK,73,54,651,73,2014-08-01T22:40:00,0,20819189,190879
OK,73,54,651,73,2014-08-01T22:45:00,0,20819477,190879
OK,73,54,651,73,2014-08-01T22:50:00,0,20819712,190879
OK,73,54,651,73,2014-08-01T22:55:00,0,20819965,190879
OK,73,54,651,73,2014-08-01T23:00:00,0,20820141,190879
OK,73,54,651,73,2014-08-01T23:05:00,0,20820394,190879
OK,73,54,651,73,2014-08-01T23:10:00,0,20820624,190879
OK,73,54,651,73,2014-08-01T23:15:00,0,20820812,190879
OK,73,54,651,73,2014-08-01T23:20:00,0,20821065,190879
OK,73,54,651,73,2014-08-01T23:25:00,0,20821241,190879
OK,73,54,651,73,2014-08-01T23:30:00,0,20821466,190879
OK,73,54,651,73,2014-08-01T23:35:00,0,20821711,190879
OK,73,54,651,73,2014-08-01T23:40:00,0,20821890,190879
OK,73,54,651,73,2014-08-01T23:45:00,0,20822113,190879
OK,73,54,651,73,2014-08-01T23:50:00,0,20822380,190879
OK,73,54,651,73,2014-08-01T23:55:00,0,20822706,190879
OK,73,54,651,73,2014-08-02T00:00:00,0,20823004,190879
OK,73,54,651,73,2014-08-02T00:05:00,0,20823453,190879
OK,73,54,651,73,2014-08-02T00:10:00,0,20823902,190879
OK,73,54,651,73,2014-08-02T00:15:00,0,20824351,190879
OK,73,54,651,73,2014-08-02T00:20:00,0,20824800,190879
OK,73,54,651,73,2014-08-02T00:25:00,0,20825249,190879
OK,73,54,651,73,2014-08-02T00:30:00,0,20825698,190879
OK,73,54,651,73,2014-08-02T00:35:00,0,20826147,190879
OK,73,54,651,73,2014-08-02T00:40:00,0,20826596,190879
OK,73,54,651,73,2014-08-02T00:45:00,0,20827045,190879
OK,73,54,651,73,2014-08-02T00:50:00,0,20827494,190879
OK,68,58,651,68,2014-08-02T00:55:00,1,20827943,190879
OK,68,58,651,68,2014-08-02T01:00:00,0,20828392,190879
OK,62,64,651,62,2014-08-02T01:05:00,0,20828841,190879
OK,62,64,651,62,2014-08-02T01:10:00,0,20829290,190879
OK,62,64,651,62,2014-08-02T01:15:00,0,20829739,190879
OK,62,64,651,62,2014-08-02T01:20:00,0,20830188,190879
OK,62,64,651,62,2014-08-02T01:25:00,0,20830637,190879
OK,62,64,651,62,2014-08-02T01:30:00,0,20831086,190879
OK,62,64,651,62,2014-08-02T01:35:00,0,20831535,190879
OK,62,64,651,62,2014-08-02T01:40:00,0,20831984,190879
OK,62,64,651,62,2014-08-02T01:45:00,0,20832433,190879
OK,62,64,651,62,2014-08-02T01:50:00,0,20832882,190879
OK,62,64,651,62,2014-08-02T01:55:00,0,20833331,190879
OK,62,64,651,62,2014-08-02T02:00:00,0,20833780,190879
OK,62,64,651,62,2014-08-02T02:05:00,0,20834229,190879
OK,62,64,651,62,2014-08-02T02:10:00,0,20834678,190879
OK,62,64,651,62,2014-08-02T02:15:00,0,20835127,190879
OK,62,64,651,62,2014-08-02T02:20:00,0,20835576,190879
OK,62,64,651,62,2014-08-02T02:25:00,0,20836025,190879
OK,62,64,651,62,2014-08-02T02:30:00,0,20836474,190879
OK,62,64,651,62,2014-08-02T02:35:00,0,20836923,190879
OK,62,64,651,62,2014-08-02T02:40:00,0,20837372,190879
OK,62,64,651,62,2014-08-02T02:45:00,0,20837821,190879
OK,62,64,651,62,2014-08-02T02:50:00,0,20838270,190879
OK,62,64,651,62,2014-08-02T02:55:00,0,20838719,190879
OK,62,64,651,62,2014-08-02T03:00:00,0,20839168,190879
OK,62,64,651,62,2014-08-02T03:05:00,0,20839617,190879
OK,62,64,651,62,2014-08-02T03:10:00,0,20840066,190879
OK,62,64,651,62,2014-08-02T03:15:00,0,20840515,190879
OK,62,64,651,62,2014-08-02T03:20:00,0,20840964,190879
OK,62,64,651,62,2014-08-02T03:25:00,0,20841413,190879
OK,62,64,651,62,2014-08-02T03:30:00,0,20841862,190879
OK,62,64,651,62,2014-08-02T03:35:00,0,20842311,190879
OK,62,64,651,62,2014-08-02T03:40:00,0,20842760,190879
OK,62,64,651,62,2014-08-02T03:45:00,0,20843209,190879
OK,62,64,651,62,2014-08-02T03:50:00,0,20843658,190879
OK,62,64,651,62,2014-08-02T03:55:00,0,20844107,190879
OK,62,64,651,62,2014-08-02T04:00:00,0,20844556,190879
OK,62,64,651,62,2014-08-02T04:05:00,0,20844687,190879
OK,62,64,651,62,2014-08-02T04:10:00,0,20845017,190879
OK,62,64,651,62,2014-08-02T04:15:00,0,20845197,190879
OK,62,64,651,62,2014-08-02T04:20:00,0,20845553,190879
OK,62,64,651,62,2014-08-02T04:25:00,0,20845921,190879
OK,62,64,651,62,2014-08-02T04:30:00,0,20846109,190879
OK,62,64,651,62,2014-08-02T04:35:00,0,20846476,190879
OK,62,64,651,62,2014-08-02T04:40:00,0,20846859,190879
OK,62,64,651,62,2014-08-02T04:45:00,0,20847118,190879
OK,62,64,651,62,2014-08-02T04:50:00,0,20847484,190879
OK,62,64,651,62,2014-08-02T04:55:00,0,20847841,190879
OK,62,64,651,62,2014-08-02T05:00:00,0,20848201,190879
OK,62,64,651,62,2014-08-02T05:05:00,0,20848366,190879
OK,62,64,651,62,2014-08-02T05:10:00,0,20848719,190879
OK,62,64,651,62,2014-08-02T05:15:00,0,20848911,190879
OK,92,43,651,92,2014-08-02T05:20:00,2,20849255,190879
OK,92,43,651,92,2014-08-02T05:25:00,2,20849573,190879
OK,92,43,651,92,2014-08-02T05:30:00,0,20849780,190879
OK,92,43,651,92,2014-08-02T05:35:00,0,20850052,190879
OK,92,43,651,92,2014-08-02T05:40:00,0,20850345,190879
OK,92,43,651,92,2014-08-02T05:45:00,0,20850646,190879
OK,92,43,651,92,2014-08-02T05:50:00,0,20851004,190879
OK,92,43,651,92,2014-08-02T05:55:00,0,20851258,190879
OK,92,43,651,92,2014-08-02T06:00:00,0,20851561,190879
OK,92,43,651,92,2014-08-02T06:05:00,0,20852010,190879
OK,82,48,651,82,2014-08-02T06:10:00,1,20852459,190879
OK,82,48,651,82,2014-08-02T06:15:00,1,20852908,190879
OK,82,48,651,82,2014-08-02T06:20:00,0,20853357,190879
OK,63,63,651,63,2014-08-02T06:25:00,2,20853806,190879
OK,62,64,651,62,2014-08-02T06:30:00,1,20854255,190879
OK,62,64,651,62,2014-08-02T06:35:00,0,20854704,190879
OK,67,59,651,67,2014-08-02T06:40:00,1,20855153,190879
OK,71,56,651,71,2014-08-02T06:45:00,2,20855602,190879
OK,76,52,651,76,2014-08-02T06:50:00,0,20856051,190879
OK,73,54,651,73,2014-08-02T06:55:00,1,20856500,190879
OK,73,54,651,73,2014-08-02T07:00:00,0,20856949,190879
OK,73,54,651,73,2014-08-02T07:05:00,0,20857398,190879
OK,73,54,651,73,2014-08-02T07:10:00,0,20857847,190879
OK,72,55,651,72,2014-08-02T07:15:00,3,20858296,190879
OK,80,49,651,80,2014-08-02T07:20:00,1,20858745,190879
OK,80,49,651,80,2014-08-02T07:25:00,0,20859194,190879
OK,99,40,651,99,2014-08-02T07:30:00,1,20859643,190879
OK,99,40,651,99,2014-08-02T07:35:00,1,20860092,190879
OK,89,44,651,89,2014-08-02T07:40:00,1,20860541,190879
OK,86,46,651,86,2014-08-02T07:45:00,2,20860990,190879
OK,84,47,651,84,2014-08-02T07:50:00,0,20861439,190879
OK,163,24,651,163,2014-08-02T07:55:00,1,20861888,190879
OK,163,24,651,163,2014-08-02T08:00:00,0,20862337,190879
OK,71,56,651,71,2014-08-02T08:05:00,2,20862786,190879
OK,66,60,651,66,2014-08-02T08:10:00,4,20863235,190879
OK,63,63,651,63,2014-08-02T08:15:00,2,20863684,190879
OK,62,64,651,62,2014-08-02T08:20:00,1,20864133,190879
OK,61,65,651,61,2014-08-02T08:25:00,1,20864582,190879
OK,68,58,651,68,2014-08-02T08:30:00,3,20865031,190879
OK,77,51,651,77,2014-08-02T08:35:00,2,20865480,190879
OK,75,53,651,75,2014-08-02T08:40:00,3,20865929,190879
OK,80,49,651,80,2014-08-02T08:45:00,4,20866378,190879
OK,74,53,651,74,2014-08-02T08:50:00,1,20866827,190879
OK,67,59,651,67,2014-08-02T08:55:00,1,20867276,190879
OK,67,59,651,67,2014-08-02T09:00:00,0,20867725,190879
OK,72,55,651,72,2014-08-02T09:05:00,2,20868174,190879
OK,72,55,651,72,2014-08-02T09:10:00,2,20868623,190879
OK,78,51,651,78,2014-08-02T09:15:00,0,20869072,190879
OK,71,56,651,71,2014-08-02T09:20:00,1,20869521,190879
OK,71,56,651,71,2014-08-02T09:25:00,2,20869970,190879
OK,71,56,651,71,2014-08-02T09:30:00,0,20870419,190879
OK,61,65,651,61,2014-08-02T09:35:00,2,20870868,190879
OK,63,63,651,63,2014-08-02T09:40:00,3,20871317,190879
OK,80,49,651,80,2014-08-02T09:45:00,1,20871766,190879
OK,80,49,651,80,2014-08-02T09:50:00,3,20872215,190879
OK,79,50,651,79,2014-08-02T09:55:00,4,20872664,190879
OK,79,50,651,79,2014-08-02T10:00:00,2,20873113,190879
OK,73,54,651,73,2014-08-02T10:05:00,2,20873562,190879
OK,75,53,651,75,2014-08-02T10:10:00,2,20874011,190879
OK,79,50,651,79,2014-08-02T10:15:00,2,20874460,190879
OK,78,51,651,78,2014-08-02T10:20:00,2,20874909,190879
OK,76,52,651,76,2014-08-02T10:25:00,2,20875358,190879
OK,66,60,651,66,2014-08-02T10:30:00,0,20875807,190879
OK,90,44,651,90,2014-08-02T10:35:00,1,20876256,190879
OK,90,44,651,90,2014-08-02T10:40:00,1,20876705,190879
OK,71,56,651,71,2014-08-02T10:45:00,2,20877154,190879
OK,75,53,651,75,2014-08-02T10:50:00,4,20877603,190879
OK,75,53,651,75,2014-08-02T10:55:00,4,20878052,190879
OK,82,48,651,82,2014-08-02T11:00:00,4,20878501,190879
OK,85,46,651,85,2014-08-02T11:05:00,3,20878950,190879
OK,85,46,651,85,2014-08-02T11:10:00,0,20879399,190879
OK,75,53,651,75,2014-08-02T11:15:00,2,20879848,190879
OK,76,52,651,76,2014-08-02T11:20:00,2,20880297,190879
OK,74,53,651,74,2014-08-02T11:25:00,0,20880746,190879
OK,74,53,651,74,2014-08-02T11:30:00,2,20881195,190879
OK,74,53,651,74,2014-08-02T11:35:00,1,20881644,190879
OK,93,42,651,93,2014-08-02T11:40:00,1,20882093,190879
OK,85,46,651,85,2014-08-02T11:45:00,6,20882542,190879
OK,85,46,651,85,2014-08-02T11:50:00,0,20882991,190879
OK,79,50,651,79,2014-08-02T11:55:00,1,20883440,190879
OK,71,56,651,71,2014-08-02T12:00:00,2,20883889,190879
OK,78,51,651,78,2014-08-02T12:05:00,2,20884338,190879
OK,82,48,651,82,2014-08-02T12:10:00,2,20884787,190879
OK,86,46,651,86,2014-08-02T12:15:00,1,20885236,190879
OK,70,57,651,70,2014-08-02T12:20:00,2,20885685,190879
OK,74,53,651,74,2014-08-02T12:25:00,4,20886134,190879
OK,79,50,651,79,2014-08-02T12:30:00,2,20886583,190879
OK,71,56,651,71,2014-08-02T12:35:00,4,20887032,190879
OK,69,57,651,69,2014-08-02T12:40:00,3,20887481,190879
OK,71,56,651,71,2014-08-02T12:45:00,0,20887930,190879
OK,68,58,651,68,2014-08-02T12:50:00,2,20888379,190879
OK,73,54,651,73,2014-08-02T12:55:00,2,20888828,190879
OK,71,56,651,71,2014-08-02T13:00:00,3,20889277,190879
OK,65,61,651,65,2014-08-02T13:05:00,2,20889726,190879
OK,58,68,651,58,2014-08-02T13:10:00,1,20890175,190879
OK,81,49,651,81,2014-08-02T13:15:00,1,20890624,190879
OK,77,51,651,77,2014-08-02T13:20:00,2,20891073,190879
OK,77,51,651,77,2014-08-02T13:25:00,2,20891522,190879
OK,70,57,651,70,2014-08-02T13:30:00,2,20891971,190879
OK,85,46,651,85,2014-08-02T13:35:00,2,20892420,190879
OK,65,61,651,65,2014-08-02T13:40:00,2,20892869,190879
OK,65,61,651,65,2014-08-02T13:45:00,2,20893318,190879
OK,98,40,651,98,2014-08-02T13:50:00,1,20893767,190879
OK,98,40,651,98,2014-08-02T13:55:00,1,20894216,190879
OK,91,43,651,91,2014-08-02T14:00:00,2,20894665,190879
OK,91,43,651,91,2014-08-02T14:05:00,2,20895114,190879
OK,100,39,651,100,2014-08-02T14:10:00,0,20895563,190879
OK,83,48,651,83,2014-08-02T14:15:00,2,20896012,190879
OK,81,49,651,81,2014-08-02T14:20:00,3,20896461,190879
OK,57,70,651,57,2014-08-02T14:25:00,1,20896910,190879
OK,57,70,651,57,2014-08-02T14:30:00,1,20897359,190879
OK,57,70,651,57,2014-08-02T14:35:00,0,20897808,190879
OK,78,51,651,78,2014-08-02T14:40:00,2,20898257,190879
OK,77,51,651,77,2014-08-02T14:45:00,2,20898706,190879
OK,84,47,651,84,2014-08-02T14:50:00,3,20899155,190879
OK,77,51,651,77,2014-08-02T14:55:00,4,20899604,190879
OK,73,54,651,73,2014-08-02T15:00:00,6,20900053,190879
OK,75,53,651,75,2014-08-02T15:05:00,6,20900502,190879
OK,82,48,651,82,2014-08-02T15:10:00,3,20900951,190879
OK,74,53,651,74,2014-08-02T15:15:00,4,20901400,190879
OK,73,54,651,73,2014-08-02T15:20:00,3,20901849,190879
OK,79,50,651,79,2014-08-02T15:25:00,2,20902298,190879
OK,90,44,651,90,2014-08-02T15:30:00,1,20902747,190879
OK,78,51,651,78,2014-08-02T15:35:00,1,20903196,190879
OK,78,51,651,78,2014-08-02T15:40:00,1,20903645,190879
OK,69,57,651,69,2014-08-02T15:45:00,3,20904094,190879
OK,85,46,651,85,2014-08-02T15:50:00,5,20904543,190879
OK,75,53,651,75,2014-08-02T15:55:00,1,20904992,190879
OK,87,45,651,87,2014-08-02T16:00:00,1,20905441,190879
OK,87,45,651,87,2014-08-02T16:05:00,0,20905890,190879
OK,76,52,651,76,2014-08-02T16:10:00,1,20906339,190879
OK,63,63,651,63,2014-08-02T16:15:00,3,20906788,190879
OK,58,68,651,58,2014-08-02T16:20:00,1,20907237,190879
OK,78,51,651,78,2014-08-02T16:25:00,1,20907686,190879
OK,78,51,651,78,2014-08-02T16:30:00,0,20908135,190879
OK,76,52,651,76,2014-08-02T16:35:00,1,20908584,190879
OK,74,53,651,74,2014-08-02T16:40:00,4,20909033,190879
OK,71,56,651,71,2014-08-02T16:45:00,0,20909482,190879
OK,71,56,651,71,2014-08-02T16:50:00,0,20909931,190879
OK,71,56,651,71,2014-08-02T16:55:00,0,20910380,190879
OK,71,56,651,71,2014-08-02T17:00:00,0,20910829,190879
OK,71,56,651,71,2014-08-02T17:05:00,0,20911278,190879
OK,71,56,651,71,2014-08-02T17:10:00,0,20911727,190879
OK,71,56,651,71,2014-08-02T17:15:00,0,20912176,190879
OK,71,56,651,71,2014-08-02T17:20:00,0,20912625,190879
OK,71,56,651,71,2014-08-02T17:25:00,0,20913074,190879
OK,71,56,651,71,2014-08-02T17:30:00,0,20913523,190879
OK,68,58,651,68,2014-08-02T17:35:00,1,20913972,190879
OK,68,58,651,68,2014-08-02T17:40:00,0,20914421,190879
OK,68,58,651,68,2014-08-02T17:45:00,0,20914870,190879
OK,85,46,651,85,2014-08-02T17:50:00,1,20915319,190879
OK,85,46,651,85,2014-08-02T17:55:00,0,20915768,190879
OK,85,46,651,85,2014-08-02T18:00:00,0,20916217,190879
OK,68,58,651,68,2014-08-02T18:05:00,1,20916666,190879
OK,68,58,651,68,2014-08-02T18:10:00,1,20917115,190879
OK,130,30,651,130,2014-08-02T18:15:00,1,20917564,190879
OK,102,39,651,102,2014-08-02T18:20:00,2,20918013,190879
OK,72,55,651,72,2014-08-02T18:25:00,1,20918462,190879
OK,72,55,651,72,2014-08-02T18:30:00,0,20918911,190879
OK,81,49,651,81,2014-08-02T18:35:00,1,20919360,190879
OK,73,54,651,73,2014-08-02T18:40:00,1,20919809,190879
OK,94,42,651,94,2014-08-02T18:45:00,2,20920258,190879
OK,116,34,651,116,2014-08-02T18:50:00,1,20920707,190879
OK,62,64,651,62,2014-08-02T18:55:00,1,20921156,190879
OK,62,64,651,62,2014-08-02T19:00:00,1,20921605,190879
OK,62,64,651,62,2014-08-02T19:05:00,0,20922054,190879
OK,62,64,651,62,2014-08-02T19:10:00,0,20922503,190879
OK,62,64,651,62,2014-08-02T19:15:00,0,20922952,190879
OK,62,64,651,62,2014-08-02T19:20:00,0,20923401,190879
OK,70,57,651,70,2014-08-02T19:25:00,1,20923850,190879
OK,70,57,651,70,2014-08-02T19:30:00,0,20924299,190879
OK,70,57,651,70,2014-08-02T19:35:00,0,20924748,190879
OK,70,57,651,70,2014-08-02T19:40:00,0,20925197,190879
OK,70,57,651,70,2014-08-02T19:45:00,0,20925646,190879
OK,70,57,651,70,2014-08-02T19:50:00,0,20926095,190879
OK,70,57,651,70,2014-08-02T19:55:00,0,20926544,190879